[[{"header":{"parameterUnit":"m.s-1","parameterCategory":1,"la1":30.2991,"la2":30.254,"lo1":-89.0895,"lo2":-89.0444,"dy":0.0017,"dx":0.0017,"nx":28,"ny":28,"refTime":"2025-04-30T03:00:00:Z","depth":0,"parameterNumber":2,"parameterNumberName":"U-component_of_WINDS"},"data":[0,0,0,0,0,0,0,0,0,0,0,0,0,0,0,0,0,0,0,0,0,0,0,0,0,0,0,0,0,0,0,0,0,0,0,0,0,0,0,0,0,0,0,0,0,0,0,0,0,0,0,0,0,0,0,0,0,0,-1.6756,-1.6757,0,-1.6917,-1.6919,-1.6921,-1.7001,-1.7001,-1.7001,-1.7001,-1.7164,-1.7168,-1.7173,0,0,0,0,0,0,0,0,0,0,0,0,0,-1.6515,-1.6519,-1.6755,-1.6757,-1.6759,-1.6917,-1.6919,-1.6921,-1.7001,-1.7001,-1.7001,-1.7001,-1.7163,-1.7168,-1.7173,0,0,0,0,0,0,0,0,0,0,0,0,0,-1.6642,-1.652,-1.6755,-1.6818,-1.6825,-1.6916,-1.6919,-1.6922,-1.7001,-1.7001,-1.7001,-1.7001,-1.7161,-1.7167,-1.7174,-1.7214,0,0,-1.7194,-1.7197,0,0,0,0,0,0,0,0,-1.6635,-1.6651,-1.6807,-1.6814,-1.6822,-1.6939,-1.6894,-1.7019,-1.7001,-1.6934,-1.7001,-1.7001,-1.7089,-1.7101,-1.7132,-1.7221,-1.7228,-1.7194,-1.7198,-1.7201,-1.7203,0,0,0,0,0,0,0,-1.6626,-1.6644,-1.6819,-1.6809,-1.6818,-1.6838,-1.6856,-1.6918,-1.7009,-1.694,-1.6946,-1.6964,-1.7093,-1.7125,-1.7136,-1.7231,-1.7194,-1.72,-1.7204,-1.7206,-1.7362,-1.7362,0,0,0,0,0,0,-1.6607,-1.6637,-1.6814,-1.6824,-1.6727,-1.6842,-1.6863,-1.6901,-1.7009,-1.7025,-1.6964,-1.6967,-1.7114,-1.7128,-1.7142,-1.7197,-1.7201,-1.7207,-1.7211,-1.7362,-1.7362,-1.7363,0,0,0,0,0,0,-1.6602,-1.6622,-1.6808,-1.6732,-1.6757,-1.6847,-1.6889,-1.6904,-1.6937,-1.7027,-1.7044,-1.698,-1.7115,-1.7133,-1.7196,-1.7204,-1.721,-1.7216,-1.7362,-1.7362,-1.7362,-1.7306,0,0,0,0,0,0,-1.6594,-1.662,-1.6636,-1.6732,-1.6761,-1.6859,-1.689,-1.6908,-1.6948,-1.6954,-1.7047,-1.7062,-1.7116,-1.7186,-1.7202,-1.7213,-1.7221,-1.7361,-1.7362,-1.7362,-1.7307,-1.7304,-1.7301,0,0,0,0,0,-1.6586,-1.6613,-1.6636,-1.6657,-1.6783,-1.6859,-1.6876,-1.6938,-1.6948,-1.6965,-1.7024,-1.7059,-1.72,-1.7191,-1.7211,-1.7223,-1.7361,-1.7362,-1.7362,-1.7309,-1.7305,-1.7301,0,0,0,0,0,0,-1.6515,-1.6627,-1.6654,-1.6713,-1.6776,-1.6872,-1.6896,-1.6931,-1.6992,-1.6995,-1.7069,-1.7089,-1.7145,-1.7191,-1.7179,-1.7268,-1.7284,-1.7288,-1.7236,-1.7234,-1.7231,-1.7219,-1.7226,0,0,0,0,0,-1.6506,-1.6559,-1.6654,-1.6697,-1.6727,-1.6806,-1.6841,-1.6883,-1.6951,-1.6978,-1.7041,-1.7105,-1.7164,-1.7201,-1.726,-1.7314,-1.7336,-1.7332,-1.7329,-1.7326,-1.7329,-1.7362,-1.7362,-1.7364,-1.7364,-1.7364,0,0,-1.6489,-1.6557,-1.6585,-1.6684,-1.6738,-1.6791,-1.6827,-1.6881,-1.6921,-1.6986,-1.705,-1.7098,-1.7174,-1.7233,-1.7262,-1.7272,-1.7333,-1.7327,-1.7324,-1.7329,-1.7362,-1.7362,-1.7362,-1.7365,-1.7365,-1.7364,0,0,-1.6485,-1.6541,-1.6584,-1.6637,-1.6718,-1.677,-1.678,-1.6871,-1.6906,-1.6971,-1.7021,-1.7069,-1.7169,-1.7222,-1.7261,-1.7277,-1.7313,-1.7294,-1.7279,-1.731,-1.731,-1.731,-1.7317,-1.7318,-1.7297,-1.7297,-1.7297,0,-1.6453,-1.6535,-1.6601,-1.6652,-1.6695,-1.6757,-1.68,-1.6849,-1.6944,-1.6972,-1.6982,-1.711,-1.7165,-1.7237,-1.7241,-1.7271,-1.7285,-1.7284,-1.7305,-1.7305,-1.7307,-1.7314,-1.7316,-1.7294,-1.7295,-1.7295,-1.7295,0,-1.6492,-1.6548,-1.6572,-1.6664,-1.6709,-1.6756,-1.683,-1.6867,-1.6906,-1.6957,-1.7022,-1.7091,-1.7166,-1.7186,-1.7224,-1.7264,-1.7268,-1.729,-1.7308,-1.7303,-1.7311,-1.7314,-1.729,-1.7291,-1.7292,-1.7293,0,0,-1.6448,-1.6576,-1.6584,-1.6627,-1.6721,-1.6765,-1.6815,-1.6889,-1.692,-1.6984,-1.7028,-1.7111,-1.7133,-1.7178,-1.7222,-1.7249,-1.7259,-1.7269,-1.7272,-1.7265,-1.7308,-1.7291,-1.7293,-1.7282,-1.7283,-1.7284,-1.7302,0,-1.6457,-1.6551,-1.6612,-1.6681,-1.6734,-1.6793,-1.6837,-1.6899,-1.6948,-1.7,-1.7054,-1.7112,-1.7136,-1.7164,-1.7193,-1.7251,-1.7268,-1.7251,-1.7324,-1.7326,-1.7304,-1.7297,-1.728,-1.7293,-1.7305,-1.7306,-1.7306,0,-1.6481,-1.6544,-1.6618,-1.6708,-1.6732,-1.677,-1.6843,-1.6892,-1.6964,-1.6998,-1.7048,-1.7093,-1.7149,-1.7161,-1.7239,-1.7225,-1.7259,-1.7292,-1.7294,-1.7304,-1.7316,-1.7308,-1.7299,-1.7301,-1.7312,-1.7311,-1.7311,0,-1.6442,-1.6546,-1.6604,-1.6639,-1.6744,-1.677,-1.6814,-1.6887,-1.6927,-1.699,-1.7018,-1.7086,-1.7124,-1.7176,-1.7238,-1.7241,-1.731,-1.7327,-1.734,-1.7338,-1.7352,-1.735,-1.735,-1.7372,-1.7372,-1.7372,-1.7372,0,-1.6447,-1.649,-1.6588,-1.6624,-1.6675,-1.6744,-1.6792,-1.6842,-1.6906,-1.6952,-1.7007,-1.705,-1.713,-1.7182,-1.7231,-1.7288,-1.7304,-1.7333,-1.7346,-1.7329,-1.7325,-1.7353,-1.7354,-1.7372,-1.7372,-1.7372,-1.7372,0,-1.6412,-1.648,-1.6547,-1.6642,-1.6666,-1.6699,-1.678,-1.6817,-1.6869,-1.6928,-1.6945,-1.7027,-1.7091,-1.7159,-1.7246,-1.7279,-1.7334,-1.7351,-1.731,-1.7317,-1.7326,-1.7325,-1.7344,-1.735,-1.7367,-1.7366,-1.7366,0,-1.6411,-1.6446,-1.6544,-1.658,-1.6624,-1.668,-1.6722,-1.6792,-1.6833,-1.6918,-1.6945,-1.7014,-1.7072,-1.7172,-1.7239,-1.7306,-1.7326,-1.7328,-1.7337,-1.7319,-1.7327,-1.7325,-1.7329,-1.7325,-1.7325,-1.7324,-1.7324,0,-1.6402,-1.6434,-1.6493,-1.6563,-1.6612,-1.6671,-1.6731,-1.6757,-1.6839,-1.6883,-1.695,-1.6995,-1.7085,-1.7152,-1.7227,-1.7274,-1.7313,-1.7321,-1.7328,-1.7311,-1.7286,-1.7301,-1.7303,-1.732,-1.7321,-1.7321,-1.7321,-1.7321,-1.6386,-1.642,-1.6495,-1.6558,-1.6611,-1.6667,-1.6707,-1.6764,-1.6821,-1.69,-1.6938,-1.7005,-1.7076,-1.7182,-1.7227,-1.728,-1.7292,-1.7301,-1.7303,-1.7305,-1.7301,-1.7277,-1.7294,-1.7294,-1.7294,-1.7295,-1.7295,0,-1.638,-1.6432,-1.6489,-1.6573,-1.6623,-1.6656,-1.6725,-1.6765,-1.6823,-1.6887,-1.6944,-1.7021,-1.7087,-1.7159,-1.723,-1.7259,-1.7278,-1.7275,-1.7274,-1.7284,-1.7286,-1.7274,-1.7258,-1.7258,-1.7258,-1.7258,-1.7258,-1.7258,-1.6384,-1.6444,-1.6484,-1.6571,-1.6622,-1.6689,-1.6725,-1.6777,-1.6829,-1.6913,-1.6968,-1.7015,-1.7082,-1.7158,-1.722,-1.724,-1.7264,-1.7255,-1.728,-1.7281,-1.7284,-1.7286,-1.7275,-1.7259,-1.7259,-1.7273,-1.7273,-1.7273]},{"header":{"parameterUnit":"m.s-1","parameterCategory":1,"la1":30.2991,"la2":30.254,"lo1":-89.0895,"lo2":-89.0444,"dy":0.0017,"dx":0.0017,"nx":28,"ny":28,"refTime":"2025-04-30T03:00:00:Z","depth":0,"parameterNumber":3,"parameterNumberName":"V-component_of_WINDS"},"data":[0,0,0,0,0,0,0,0,0,0,0,0,0,0,0,0,0,0,0,0,0,0,0,0,0,0,0,0,0,0,0,0,0,0,0,0,0,0,0,0,0,0,0,0,0,0,0,0,0,0,0,0,0,0,0,0,0,0,4.4667,4.4668,0,4.4772,4.4773,4.4774,4.4754,4.4752,4.475,4.4749,4.4852,4.4856,4.4861,0,0,0,0,0,0,0,0,0,0,0,0,0,4.4444,4.4448,4.4666,4.4668,4.4669,4.4772,4.4773,4.4774,4.4755,4.4752,4.475,4.4748,4.485,4.4856,4.4861,0,0,0,0,0,0,0,0,0,0,0,0,0,4.4544,4.4449,4.4666,4.4672,4.4673,4.4771,4.4773,4.4775,4.4755,4.4752,4.4749,4.4747,4.4849,4.4855,4.4862,4.496,0,0,4.4882,4.4885,0,0,0,0,0,0,0,0,4.4538,4.4552,4.467,4.4672,4.4673,4.4747,4.4732,4.4837,4.4756,4.4724,4.4749,4.4745,4.4819,4.4828,4.4854,4.4964,4.4969,4.4883,4.4887,4.489,4.4892,0,0,0,0,0,0,0,4.4531,4.4547,4.4708,4.4671,4.4674,4.4667,4.4678,4.4752,4.4786,4.4726,4.4725,4.4738,4.4819,4.4847,4.4856,4.497,4.4883,4.4889,4.4893,4.4896,4.5165,4.5168,0,0,0,0,0,0,4.4523,4.4542,4.4705,4.4711,4.4598,4.4674,4.4686,4.4726,4.4785,4.4791,4.474,4.4737,4.4837,4.4848,4.4859,4.4977,4.489,4.4896,4.49,4.5162,4.5166,4.5169,0,0,0,0,0,0,4.4518,4.4538,4.47,4.4626,4.4646,4.468,4.4726,4.473,4.4758,4.4796,4.4801,4.4763,4.4835,4.485,4.4935,4.498,4.4899,4.4905,4.5158,4.5163,4.5167,4.5213,0,0,0,0,0,0,4.4512,4.4536,4.4575,4.4627,4.465,4.4776,4.4729,4.4734,4.477,4.4766,4.4818,4.4824,4.4834,4.4925,4.4942,4.4988,4.4911,4.5154,4.516,4.5166,4.5207,4.5218,4.5228,0,0,0,0,0,4.4504,4.4583,4.4577,4.4597,4.47,4.4778,4.4791,4.4803,4.4774,4.4812,4.4836,4.4822,4.4973,4.4934,4.4952,4.5001,4.5151,4.5159,4.5165,4.5203,4.5216,4.5228,0,0,0,0,0,0,4.4534,4.459,4.4584,4.4682,4.4726,4.4775,4.4824,4.4817,4.4869,4.4863,4.4873,4.4885,4.4971,4.4995,4.495,4.5098,4.5058,4.5069,4.508,4.5093,4.5103,4.5095,4.4916,0,0,0,0,0,4.4552,4.4612,4.4658,4.474,4.4762,4.4789,4.4824,4.4829,4.4874,4.4892,4.4922,4.4965,4.5022,4.5059,4.5113,4.5211,4.5221,4.5254,4.5264,4.5272,4.5281,4.5333,4.5348,4.5192,4.5192,4.5192,0,0,4.4589,4.4628,4.4665,4.4747,4.4781,4.4842,4.4805,4.4871,4.4916,4.4901,4.4983,4.5007,4.5055,4.5147,4.5189,4.5169,4.5327,4.5281,4.5288,4.5292,4.5342,4.5356,4.537,4.5197,4.5196,4.5195,0,0,4.4689,4.4725,4.4797,4.4832,4.4885,4.4903,4.492,4.497,4.4986,4.5069,4.5059,4.5111,4.5209,4.5244,4.5274,4.5386,4.5375,4.5404,4.5457,4.5507,4.5519,4.553,4.5569,4.5583,4.5413,4.5413,4.5413,0,4.4728,4.4821,4.4834,4.4901,4.4937,4.4928,4.5,4.5033,4.5101,4.5124,4.5102,4.5225,4.5257,4.5355,4.5383,4.5408,4.5427,4.5397,4.5517,4.5528,4.5538,4.5575,4.559,4.5416,4.5416,4.5415,4.5415,0,4.4867,4.4931,4.4983,4.5049,4.5091,4.516,4.5181,4.5221,4.5223,4.5242,4.5325,4.5364,4.5425,4.5449,4.5451,4.5548,4.5534,4.5515,4.5474,4.5556,4.559,4.5605,4.542,4.5419,4.5418,4.5418,0,0,4.4987,4.506,4.5078,4.5108,4.5166,4.5215,4.5283,4.5345,4.5378,4.5425,4.5481,4.5564,4.5546,4.558,4.5586,4.563,4.5715,4.5605,4.5606,4.5623,4.5822,4.5835,4.5852,4.5708,4.5711,4.5713,4.5817,0,4.5091,4.5212,4.5225,4.5333,4.5392,4.5385,4.5443,4.5484,4.5504,4.5555,4.5576,4.5635,4.5608,4.5628,4.5672,4.5695,4.5755,4.5688,4.5758,4.5761,4.5745,4.587,4.5885,4.5981,4.5831,4.5834,4.5835,0,4.5228,4.528,4.5394,4.5442,4.5467,4.5521,4.5577,4.5627,4.5673,4.5684,4.5722,4.5722,4.579,4.5748,4.5841,4.5795,4.5825,4.5841,4.5844,4.585,4.5802,4.5877,4.6012,4.6026,4.5857,4.5855,4.5854,0,4.5302,4.54,4.5481,4.5507,4.5566,4.5603,4.5629,4.5672,4.5708,4.5757,4.578,4.5836,4.5867,4.5909,4.5923,4.5892,4.6015,4.5974,4.6025,4.6024,4.605,4.6048,4.619,4.6072,4.6072,4.6071,4.6071,0,4.5416,4.5485,4.5515,4.5565,4.5642,4.5656,4.5731,4.5755,4.5793,4.5846,4.5843,4.5892,4.5908,4.596,4.5971,4.6045,4.6059,4.6069,4.6071,4.6069,4.6067,4.6087,4.608,4.6075,4.6074,4.6073,4.6073,0,4.5511,4.5534,4.5621,4.5671,4.5685,4.5739,4.5781,4.5827,4.5847,4.5913,4.5929,4.5959,4.6019,4.6038,4.611,4.6118,4.6204,4.6201,4.6189,4.6189,4.6238,4.6232,4.6396,4.6417,4.6287,4.6288,4.6289,0,4.5581,4.5635,4.569,4.5726,4.5754,4.5812,4.5848,4.5864,4.5902,4.5957,4.5997,4.6057,4.6106,4.6202,4.6229,4.6284,4.6281,4.6334,4.6289,4.6284,4.628,4.6276,4.628,4.6342,4.6344,4.6345,4.6346,0,4.5703,4.5712,4.5766,4.5824,4.5868,4.5914,4.5958,4.5987,4.6009,4.6051,4.6114,4.6151,4.6226,4.6285,4.6341,4.6365,4.6359,4.636,4.6374,4.6372,4.6362,4.6366,4.6211,4.6356,4.6355,4.6354,4.6354,4.6353,4.5787,4.5834,4.588,4.594,4.5975,4.6016,4.6062,4.6088,4.614,4.6203,4.6209,4.6275,4.6318,4.6393,4.6421,4.6472,4.6456,4.6477,4.6482,4.6487,4.649,4.6355,4.6482,4.6482,4.6482,4.6482,4.6481,0,4.5907,4.5937,4.5992,4.6054,4.6101,4.6092,4.6141,4.6179,4.6239,4.628,4.6329,4.6399,4.6456,4.6488,4.6544,4.6579,4.6577,4.6593,4.659,4.6596,4.6502,4.6483,4.6594,4.6594,4.6594,4.6594,4.6594,4.6594,4.5975,4.6054,4.6068,4.6163,4.6191,4.6258,4.6286,4.6323,4.6356,4.6436,4.6484,4.6505,4.6541,4.6601,4.6652,4.666,4.668,4.6697,4.6703,4.6614,4.6602,4.6591,4.6574,4.6702,4.6702,4.6792,4.6793,4.6794]}]]